PBO Station Position Time Series. Reference Frame : NAM14
Format Version,1.1.0
4-character ID,P094
Station name,LastChanceCS2006
Begin Date, 2006-11-22
End Date, 2019-10-07
Release Date, 2019-10-08
Reference position, 37.2008358847 North Latitude, -117.7041947357 East Longitude, 1729.22104 meters elevation,
Date, North (mm), East (mm), Vertical (mm), North Std. Deviation (mm), East Std. Deviation (mm),              Vertical Std. Deviation (mm), Quality,
2006-11-22,0.00, 0.00, 0.00, 1.93, 1.62, 7.26, repro,
2006-11-23,-0.67, -1.47, -1.77, 1.95, 1.66, 7.44, repro,
2006-11-24,-0.25, -0.44, 4.11, 2.01, 1.69, 7.55, repro,
2006-11-25,-0.89, -0.53, 6.07, 1.97, 1.65, 7.39, repro,
2006-11-26,-1.59, -0.36, 7.71, 2.04, 1.67, 7.62, repro,
2006-11-27,-0.41, -0.94, 6.90, 1.97, 1.64, 7.35, repro,
2006-11-28,-0.81, -1.05, 8.33, 1.93, 1.63, 7.25, repro,
2006-11-29,-0.78, -0.48, 9.69, 1.93, 1.62, 7.23, repro,
2006-11-30,-0.75, 0.66, -2.98, 1.93, 1.63, 7.26, repro,
2006-12-01,-0.97, 0.37, -1.97, 1.94, 1.64, 7.35, repro,
2006-12-02,-1.64, -0.02, -2.84, 1.94, 1.63, 7.27, repro,
2006-12-03,0.17, 0.03, -3.81, 1.94, 1.64, 7.30, repro,
2006-12-04,-0.47, -0.12, -5.47, 2.04, 1.67, 7.52, repro,
2006-12-05,-0.86, 0.21, -0.45, 2.01, 1.76, 7.55, repro,
2006-12-06,0.20, 0.29, 0.02, 2.05, 1.79, 7.73, repro,
2006-12-07,-0.21, -0.20, 1.17, 1.96, 1.69, 7.39, repro,
2006-12-08,0.08, -0.16, 3.09, 1.97, 1.70, 7.48, repro,
2006-12-09,0.28, 0.38, 4.76, 2.11, 1.83, 7.96, repro,
2006-12-10,-1.04, -1.20, 5.40, 2.08, 1.75, 7.75, repro,
2006-12-11,0.04, -1.58, 5.26, 1.94, 1.65, 7.33, repro,
2006-12-12,0.07, 0.57, 2.47, 2.05, 1.75, 7.78, repro,
2006-12-13,0.77, -0.31, -2.50, 1.96, 1.71, 7.47, repro,
2006-12-14,-0.52, -0.96, 6.57, 1.96, 1.70, 7.40, repro,
2006-12-15,-0.80, -0.43, 6.06, 2.04, 1.75, 7.76, repro,
2006-12-16,-1.42, 0.58, 7.94, 2.11, 1.82, 7.81, repro,
2006-12-17,-0.96, 0.20, 4.65, 2.11, 1.89, 8.26, repro,
2006-12-18,-0.45, -0.05, 3.41, 2.17, 1.85, 8.39, repro,
2006-12-19,0.51, 0.15, 1.05, 2.04, 1.81, 7.83, repro,
2006-12-20,-1.15, -0.25, 0.59, 2.11, 1.85, 8.02, repro,
2006-12-21,-0.74, -0.28, -1.11, 1.95, 1.77, 7.51, repro,
2006-12-22,-0.63, -0.23, 8.17, 2.16, 1.97, 8.40, repro,
2006-12-23,0.48, 0.21, -1.31, 2.05, 1.83, 7.95, repro,
2006-12-24,-1.00, 0.65, -0.34, 1.93, 1.65, 7.31, repro,
2006-12-25,-1.10, 0.25, -5.08, 1.99, 1.78, 7.60, repro,
2006-12-26,-1.84, 1.07, -5.36, 2.09, 1.77, 7.94, repro,
2006-12-27,-0.14, 0.56, 10.12, 2.06, 1.77, 7.80, repro,
2006-12-28,0.87, -2.09, 4.24, 2.28, 2.04, 9.01, repro,
2006-12-29,-0.01, -1.57, -7.96, 2.17, 1.92, 8.34, repro,
2006-12-30,-0.21, -0.19, -1.96, 2.11, 1.85, 8.05, repro,
2006-12-31,-0.63, -0.88, 2.31, 2.22, 1.94, 8.74, repro,
2007-01-01,-1.46, 0.64, -1.86, 2.25, 2.00, 8.80, repro,
2007-01-02,0.28, 0.37, -0.61, 2.15, 1.91, 8.31, repro,
2007-01-03,0.69, -0.28, 5.70, 1.99, 1.80, 7.65, repro,
2007-01-04,0.27, -0.98, 6.01, 1.95, 1.73, 7.52, repro,
2007-01-05,-0.17, 0.18, -0.16, 1.94, 1.72, 7.46, repro,
2007-01-06,-0.47, 1.03, 0.01, 1.95, 1.73, 7.49, repro,
2007-01-07,0.34, -0.42, -4.48, 1.96, 1.66, 7.35, repro,
2007-01-08,1.19, -0.64, -5.40, 2.00, 1.71, 7.45, repro,
2007-01-09,-0.14, 0.01, -5.84, 1.97, 1.67, 7.29, repro,
2007-01-10,-1.42, -0.01, 1.54, 2.00, 1.72, 7.48, repro,
2007-01-11,-1.23, -0.67, 2.85, 2.01, 1.68, 7.50, repro,
2007-01-12,0.18, -0.45, 1.79, 1.94, 1.62, 7.24, repro,
2007-01-13,-0.09, -0.41, -9.22, 1.90, 1.60, 7.02, repro,
2007-01-14,0.10, 0.68, -6.98, 1.89, 1.60, 7.02, repro,
2007-01-15,-0.29, 0.26, -6.81, 1.90, 1.60, 7.10, repro,
2007-01-16,-0.52, 0.15, -6.29, 1.93, 1.62, 7.20, repro,
2007-01-17,-0.41, 0.69, -4.50, 1.92, 1.66, 7.24, repro,
2007-01-18,0.67, 0.29, -11.65, 1.96, 1.69, 7.32, repro,
2007-01-19,0.01, 0.76, -6.43, 1.96, 1.63, 7.35, repro,
2007-01-20,-1.10, -0.14, -4.30, 1.97, 1.64, 7.41, repro,
2007-01-21,-1.45, 0.59, 0.93, 1.96, 1.67, 7.35, repro,
2007-01-22,-0.80, 0.31, -2.23, 1.90, 1.61, 7.07, repro,
2007-01-23,0.31, 0.70, -9.34, 1.91, 1.61, 7.07, repro,
2007-01-24,-0.59, 0.67, -7.77, 1.90, 1.60, 7.05, repro,
2007-01-25,-0.61, 0.71, -10.67, 1.96, 1.65, 7.19, repro,
2007-01-26,-1.05, 0.08, -2.56, 1.90, 1.61, 7.03, repro,
2007-01-27,-0.95, 0.89, -2.46, 1.89, 1.60, 6.97, repro,
2007-01-28,0.44, 0.61, -4.78, 1.90, 1.60, 6.96, repro,
2007-01-29,-0.56, 0.74, -4.12, 1.90, 1.60, 7.02, repro,
2007-01-30,-0.73, 0.83, -0.77, 1.90, 1.60, 7.02, repro,
2007-01-31,-1.54, 0.74, -0.91, 1.89, 1.59, 6.97, repro,
2007-02-01,-1.22, 1.17, 1.58, 1.92, 1.65, 7.21, repro,
2007-02-02,-0.90, 1.27, -0.90, 1.92, 1.60, 7.11, repro,
2007-02-03,-0.08, 0.70, -3.30, 1.94, 1.61, 7.19, repro,
2007-02-04,0.14, 0.68, -5.44, 1.90, 1.60, 7.01, repro,
2007-02-05,-1.04, 0.81, -7.42, 1.88, 1.60, 6.98, repro,
2007-02-06,-0.84, 1.16, -7.59, 1.94, 1.61, 7.08, repro,
2007-02-07,-0.15, 1.18, -2.77, 1.88, 1.59, 6.93, repro,
2007-02-08,-1.00, 1.09, -2.64, 1.98, 1.68, 7.34, repro,
2007-02-09,-1.16, 0.98, -0.73, 1.94, 1.67, 7.28, repro,
2007-02-10,-1.72, 1.06, 0.00, 1.93, 1.64, 7.20, repro,
2007-02-11,-0.62, 0.30, 0.50, 1.90, 1.61, 7.07, repro,
2007-02-12,-0.49, 1.12, -7.60, 1.89, 1.58, 6.91, repro,
2007-02-13,-0.79, 1.32, 1.43, 1.89, 1.59, 6.97, repro,
2007-02-14,-1.67, 1.09, -3.59, 1.90, 1.61, 7.04, repro,
2007-02-15,-0.72, -0.95, 1.78, 1.91, 1.61, 7.08, repro,
2007-02-16,-1.54, 2.06, 2.64, 1.90, 1.60, 7.06, repro,
2007-02-17,0.02, 1.92, -1.30, 1.92, 1.63, 7.03, repro,
2007-02-18,0.11, 0.96, 0.01, 1.91, 1.59, 7.02, repro,
2007-02-19,-0.86, 0.88, 5.19, 1.91, 1.60, 7.04, repro,
2007-02-20,-1.30, 0.24, 4.93, 1.91, 1.61, 7.08, repro,
2007-02-21,-1.56, 0.79, 3.90, 1.91, 1.59, 7.08, repro,
2007-02-22,1.46, 1.39, 7.46, 1.90, 1.59, 7.00, repro,
2007-02-23,-0.14, 1.14, 3.64, 2.07, 1.69, 7.57, repro,
2007-02-24,-0.70, 1.10, 2.17, 1.92, 1.61, 7.09, repro,
2007-02-25,-2.93, 0.05, 9.81, 1.91, 1.61, 7.10, repro,
2007-02-26,-1.35, -0.08, 11.46, 1.91, 1.59, 7.08, repro,
2007-02-27,-2.82, 4.52, 20.50, 1.91, 1.59, 7.06, repro,
2007-02-28,-1.13, 0.92, 6.27, 1.91, 1.59, 7.03, repro,
2007-03-01,-0.77, 0.62, 7.76, 1.97, 1.67, 7.30, repro,
2007-03-02,-1.86, 0.59, 1.96, 1.97, 1.67, 7.36, repro,
2007-03-03,-1.81, 1.20, -1.33, 1.93, 1.63, 7.20, repro,
2007-03-04,0.00, 1.40, -2.57, 1.93, 1.62, 7.14, repro,
2007-03-05,-0.37, 0.81, -2.61, 1.95, 1.63, 7.20, repro,
2007-03-06,-0.77, 0.23, 2.11, 1.94, 1.64, 7.21, repro,
2007-03-07,-1.45, -0.11, 5.14, 1.94, 1.64, 7.23, repro,
2007-03-08,-1.22, 0.32, 3.63, 1.94, 1.63, 7.19, repro,
2007-03-09,-1.71, 0.73, 0.39, 1.93, 1.62, 7.10, repro,
2007-03-10,-0.28, 0.00, 3.35, 1.98, 1.67, 7.38, repro,
2007-03-11,-1.32, -0.22, -2.14, 1.98, 1.69, 7.54, repro,
2007-03-12,-0.98, 0.24, -1.40, 1.97, 1.68, 7.53, repro,
2007-03-13,-1.07, 1.04, 1.71, 1.94, 1.63, 7.25, repro,
2007-03-14,-0.80, 0.73, 4.18, 1.94, 1.63, 7.19, repro,
2007-03-15,-0.47, 1.14, 1.47, 1.93, 1.60, 7.05, repro,
2007-03-16,-0.76, 0.09, 2.75, 1.94, 1.62, 7.16, repro,
2007-03-17,-0.84, 0.22, 4.78, 1.91, 1.59, 7.05, repro,
2007-03-18,-1.30, -0.01, 7.97, 1.95, 1.64, 7.29, repro,
2007-03-19,-1.47, 0.91, 9.36, 1.92, 1.59, 7.03, repro,
2007-03-20,-1.85, 0.58, 13.86, 1.98, 1.60, 7.16, repro,
2007-03-21,-3.42, -0.74, 10.29, 2.04, 1.70, 7.61, repro,
2007-03-22,-1.14, 0.16, 9.44, 1.94, 1.63, 7.29, repro,
2007-03-23,-1.14, -0.80, 10.35, 1.94, 1.61, 7.17, repro,
2007-03-24,-1.27, 0.18, 9.26, 1.94, 1.62, 7.24, repro,
2007-03-25,-1.32, 0.30, 6.01, 1.92, 1.58, 7.03, repro,
2007-03-26,-2.45, -0.37, 8.38, 1.91, 1.57, 6.98, repro,
2007-03-27,-1.27, 0.59, 10.88, 2.01, 1.65, 7.45, repro,
2007-03-28,-3.67, -1.39, -1.88, 2.02, 1.67, 7.52, repro,
2007-03-29,-5.52, 1.04, 6.95, 1.94, 1.61, 7.23, repro,
2007-03-30,-2.72, -0.28, 0.44, 1.93, 1.59, 7.07, repro,
2007-03-31,-1.48, 0.51, 4.91, 1.92, 1.57, 6.99, repro,
2007-04-01,-1.75, 0.16, 8.83, 1.92, 1.59, 7.09, repro,
2007-04-02,-1.43, -0.19, 8.30, 1.91, 1.58, 7.03, repro,
2007-04-03,-0.88, 0.26, 1.16, 1.97, 1.65, 7.36, repro,
2007-04-04,-0.61, 0.19, 4.64, 1.95, 1.62, 7.21, repro,
2007-04-05,-2.16, 0.41, 3.09, 1.99, 1.66, 7.36, repro,
2007-04-06,-1.86, 0.03, 4.80, 2.03, 1.70, 7.56, repro,
2007-04-07,-0.94, -1.48, 6.98, 1.96, 1.62, 7.16, repro,
2007-04-08,-2.02, -0.24, 12.54, 1.91, 1.58, 7.00, repro,
2007-04-09,-0.83, -0.64, 4.40, 1.91, 1.57, 7.00, repro,
2007-04-10,-1.10, 2.47, 8.79, 1.97, 1.62, 7.20, repro,
2007-04-11,-1.82, 0.59, 8.41, 1.93, 1.58, 7.09, repro,
2007-04-12,-0.92, 0.46, 13.10, 1.93, 1.58, 7.05, repro,
2007-04-13,-0.52, -1.35, 8.73, 1.94, 1.59, 7.15, repro,
2007-04-14,-0.94, 0.16, 7.86, 1.93, 1.60, 7.17, repro,
2007-04-15,-2.51, 1.34, 7.25, 1.93, 1.58, 7.06, repro,
2007-04-16,-4.29, 2.31, 16.66, 1.93, 1.59, 7.09, repro,
2007-04-17,-0.44, 0.59, 6.96, 1.94, 1.60, 7.14, repro,
2007-04-18,-1.36, 2.69, 12.44, 1.94, 1.59, 7.13, repro,
2007-04-19,-1.29, 0.48, 4.31, 1.97, 1.63, 7.26, repro,
2007-04-20,-0.76, -0.84, 4.97, 1.94, 1.59, 7.10, repro,
2007-04-21,-1.08, 0.39, 3.20, 1.95, 1.59, 7.11, repro,
2007-04-22,-0.50, 0.47, 12.44, 1.94, 1.59, 7.09, repro,
2007-04-23,-3.34, 2.84, 7.02, 1.98, 1.63, 7.20, repro,
2007-04-24,-3.38, 2.15, 5.65, 1.97, 1.62, 7.19, repro,
2007-04-25,-0.84, -0.28, 3.37, 1.96, 1.61, 7.13, repro,
2007-04-26,-0.49, -0.18, 5.38, 1.94, 1.58, 7.08, repro,
2007-04-27,-0.63, 0.04, 3.75, 1.95, 1.58, 7.08, repro,
2007-04-28,-1.24, 0.79, 1.98, 1.95, 1.59, 7.09, repro,
2007-04-29,-0.86, -0.02, 0.74, 1.96, 1.59, 7.13, repro,
2007-04-30,-0.81, 0.26, 1.85, 1.95, 1.58, 7.08, repro,
2007-05-01,-0.90, 0.68, 3.90, 1.94, 1.57, 7.04, repro,
2007-05-02,-1.28, 0.49, 1.19, 2.02, 1.59, 7.32, repro,
2007-05-03,-0.72, 0.93, 6.65, 2.08, 1.63, 7.47, repro,
2007-05-04,-1.97, -0.56, 7.50, 1.96, 1.59, 7.13, repro,
2007-05-05,-0.59, -0.91, -4.12, 1.98, 1.62, 7.16, repro,
2007-05-06,-0.19, -0.70, -0.97, 2.00, 1.60, 7.14, repro,
2007-05-07,-0.87, 1.72, -2.84, 1.96, 1.57, 7.05, repro,
2007-05-08,-1.07, -0.08, 0.21, 1.97, 1.58, 7.10, repro,
2007-05-09,-1.62, -0.05, 4.05, 1.98, 1.59, 7.18, repro,
2007-05-10,-0.77, -0.46, 3.99, 2.10, 1.69, 7.62, repro,
2007-05-11,-0.71, -0.59, 2.82, 2.05, 1.63, 7.43, repro,
2007-05-12,-1.47, 0.68, 4.53, 1.95, 1.57, 7.06, repro,
2007-05-13,-0.94, -0.14, 1.83, 2.01, 1.60, 7.20, repro,
2007-05-14,-0.90, -0.05, 2.02, 2.00, 1.61, 7.21, repro,
2007-05-15,-1.89, -0.28, 0.67, 1.97, 1.59, 7.11, repro,
2007-05-16,-1.62, 0.05, 1.16, 1.96, 1.58, 7.06, repro,
2007-05-17,-1.41, 0.12, 4.14, 1.97, 1.61, 7.15, repro,
2007-05-18,-1.59, 0.19, 2.04, 2.03, 1.65, 7.33, repro,
2007-05-19,-2.60, 0.35, 0.48, 2.00, 1.62, 7.19, repro,
2007-05-20,-2.01, -0.08, 6.68, 2.04, 1.65, 7.33, repro,
2007-05-21,-1.76, -0.68, 7.25, 2.00, 1.62, 7.23, repro,
2007-05-22,-0.86, 0.76, 5.04, 1.98, 1.61, 7.14, repro,
2007-05-23,-0.96, 0.37, 3.90, 2.08, 1.72, 7.51, repro,
2007-05-24,-1.39, -0.01, 5.32, 2.15, 1.74, 7.77, repro,
2007-05-25,-1.31, 0.29, 2.40, 2.01, 1.62, 7.21, repro,
2007-05-26,-1.94, 0.44, 4.29, 2.01, 1.62, 7.20, repro,
2007-05-27,-1.58, -0.14, 6.46, 2.00, 1.63, 7.16, repro,
2007-05-28,-2.71, -0.20, 8.00, 1.99, 1.62, 7.18, repro,
2007-05-29,-1.25, -0.10, 4.86, 2.00, 1.59, 7.13, repro,
2007-05-30,-1.56, -0.38, 3.82, 2.02, 1.59, 7.16, repro,
2007-05-31,-1.98, -0.40, 4.06, 2.01, 1.62, 7.17, repro,
2007-06-01,-1.97, -0.66, 5.80, 1.98, 1.59, 7.09, repro,
2007-06-02,-1.85, 0.42, 6.38, 1.95, 1.58, 7.07, repro,
2007-06-03,-2.06, 0.40, 9.43, 1.95, 1.58, 7.04, repro,
2007-06-04,-1.70, 0.37, 7.53, 1.97, 1.59, 7.10, repro,
2007-06-05,-1.47, 0.47, 6.18, 2.00, 1.59, 7.15, repro,
2007-06-06,-1.09, 1.88, 25.17, 1.97, 1.60, 7.14, repro,
2007-06-07,-1.83, -0.66, 6.97, 1.95, 1.58, 7.05, repro,
2007-06-08,-1.07, 0.25, 4.98, 1.95, 1.58, 7.03, repro,
2007-06-09,-1.93, 0.09, 3.93, 1.97, 1.63, 7.19, repro,
2007-06-10,-2.00, -0.76, 1.45, 1.97, 1.59, 7.11, repro,
2007-06-11,-1.59, 0.30, 7.78, 2.01, 1.68, 7.32, repro,
2007-06-12,-1.62, 0.15, 7.63, 2.00, 1.69, 7.32, repro,
2007-06-13,-1.12, -0.18, 0.25, 1.98, 1.63, 7.13, repro,
2007-06-14,-1.33, 0.94, -2.95, 1.99, 1.64, 7.14, repro,
2007-06-15,-1.05, 0.67, 4.18, 1.95, 1.59, 7.09, repro,
2007-06-16,-1.85, 0.19, 6.26, 1.96, 1.59, 7.10, repro,
2007-06-17,-2.95, -0.84, 6.43, 1.96, 1.60, 7.14, repro,
2007-06-18,-1.00, 1.44, 8.04, 1.95, 1.58, 7.04, repro,
2007-06-19,-1.57, 0.19, -0.60, 1.94, 1.59, 7.04, repro,
2007-06-20,-0.74, -0.27, -2.06, 1.95, 1.58, 7.03, repro,
2007-06-21,-2.45, 0.20, 1.70, 1.95, 1.59, 7.08, repro,
2007-06-22,-2.29, 0.87, -2.17, 1.95, 1.58, 7.08, repro,
2007-06-23,-1.97, 0.39, 4.29, 1.96, 1.59, 7.11, repro,
2007-06-24,-1.32, -0.35, -1.60, 1.98, 1.63, 7.28, repro,
2007-06-25,-1.45, 1.41, 0.28, 1.95, 1.58, 7.06, repro,
2007-06-26,-1.36, 0.05, -5.99, 1.97, 1.59, 7.11, repro,
2007-06-27,-2.05, 0.43, 0.77, 1.95, 1.59, 7.10, repro,
2007-06-28,-2.03, 0.62, 0.79, 1.97, 1.59, 7.12, repro,
2007-06-29,-1.80, 0.56, 2.61, 1.95, 1.58, 7.08, repro,
2007-06-30,-1.58, 1.01, 1.19, 1.96, 1.59, 7.13, repro,
2007-07-01,-2.00, 0.75, 5.78, 1.95, 1.58, 7.08, repro,
2007-07-02,-1.85, 0.26, 5.43, 1.95, 1.58, 7.11, repro,
2007-07-03,-1.84, 0.38, 1.39, 1.95, 1.59, 7.12, repro,
2007-07-04,-1.60, 0.08, 0.98, 1.95, 1.59, 7.11, repro,
2007-07-05,-0.72, -0.24, 3.18, 1.95, 1.59, 7.10, repro,
2007-07-06,-0.94, 0.33, 1.58, 1.97, 1.60, 7.20, repro,
2007-07-07,-2.01, 0.54, 5.05, 1.95, 1.60, 7.17, repro,
2007-07-08,-2.27, 0.11, 5.31, 1.96, 1.60, 7.17, repro,
2007-07-09,-1.13, 0.30, 3.39, 1.98, 1.65, 7.27, repro,
2007-07-10,-1.14, -0.27, 1.61, 1.95, 1.58, 7.04, repro,
2007-07-11,-1.90, -0.41, -8.29, 1.95, 1.59, 7.08, repro,
2007-07-12,-1.53, -0.46, 3.88, 2.00, 1.66, 7.32, repro,
2007-07-13,-0.62, 1.28, 3.73, 2.00, 1.67, 7.34, repro,
2007-07-14,-0.45, 0.79, -3.78, 1.99, 1.64, 7.20, repro,
2007-07-15,-1.49, 2.01, 0.76, 1.98, 1.65, 7.22, repro,
2007-07-16,-0.13, 0.72, 1.60, 2.04, 1.72, 7.40, repro,
2007-07-17,-0.79, 0.91, 0.81, 1.96, 1.60, 7.15, repro,
2007-07-18,-1.25, 0.62, 3.78, 1.96, 1.59, 7.16, repro,
2007-07-19,-2.56, 0.36, 5.04, 1.95, 1.60, 7.13, repro,
2007-07-20,-0.74, 0.35, 5.28, 2.00, 1.66, 7.30, repro,
2007-07-21,-1.73, 1.74, 4.25, 2.00, 1.65, 7.25, repro,
2007-07-22,-1.44, 0.24, 2.07, 2.05, 1.67, 7.47, repro,
2007-07-23,-0.58, 0.53, 3.06, 2.00, 1.66, 7.35, repro,
2007-07-24,-2.75, 1.06, 4.12, 2.07, 1.68, 7.57, repro,
2007-07-25,-0.35, 0.27, 3.38, 2.01, 1.67, 7.39, repro,
2007-07-26,-0.76, -0.41, 4.42, 1.96, 1.59, 7.09, repro,
2007-07-27,-1.79, 1.25, 4.36, 2.00, 1.67, 7.33, repro,
2007-07-28,-1.36, 1.27, 4.97, 2.00, 1.67, 7.37, repro,
2007-07-29,-0.37, 0.49, 5.31, 2.00, 1.67, 7.33, repro,
2007-07-30,-1.98, 0.61, 8.83, 1.97, 1.61, 7.19, repro,
2007-07-31,-1.31, 0.94, 3.72, 1.96, 1.60, 7.14, repro,
2007-08-01,-0.80, 0.78, 13.88, 2.01, 1.68, 7.37, repro,
2007-08-02,0.62, -1.14, 3.76, 2.11, 1.77, 7.92, repro,
2007-08-03,-0.21, 0.56, 12.44, 1.98, 1.64, 7.18, repro,
2007-08-04,-1.60, -0.27, 7.45, 1.96, 1.60, 7.14, repro,
2007-08-05,-1.26, 0.27, 10.07, 2.00, 1.60, 7.23, repro,
2007-08-06,-0.18, 0.27, 11.97, 1.98, 1.63, 7.27, repro,
2007-08-07,-0.28, 0.38, 8.84, 1.98, 1.64, 7.27, repro,
2007-08-08,0.26, 0.14, 10.43, 1.94, 1.59, 7.07, repro,
2007-08-09,-0.32, 0.85, 10.85, 1.94, 1.59, 7.07, repro,
2007-08-10,-0.69, 0.23, 15.99, 1.95, 1.60, 7.12, repro,
2007-08-11,-0.13, 0.94, 9.10, 1.95, 1.58, 7.05, repro,
2007-08-12,-1.06, -0.20, 3.39, 1.95, 1.59, 7.08, repro,
2007-08-13,-0.50, 0.74, 5.07, 1.94, 1.59, 7.05, repro,
2007-08-14,0.30, -0.09, 7.60, 2.06, 1.69, 7.46, repro,
2007-08-15,-1.27, 1.44, 5.89, 2.08, 1.71, 7.56, repro,
2007-08-16,-1.06, -0.77, 5.88, 2.04, 1.65, 7.43, repro,
2007-08-17,-0.66, 0.70, 6.61, 2.05, 1.65, 7.43, repro,
2007-08-18,-0.46, 0.54, 6.70, 2.04, 1.68, 7.58, repro,
2007-08-19,-0.57, 0.54, 5.09, 2.05, 1.68, 7.61, repro,
2007-08-20,-0.88, 0.39, 6.95, 2.02, 1.63, 7.36, repro,
2007-08-21,-0.18, 0.73, 5.80, 2.08, 1.66, 7.52, repro,
2007-08-22,-0.92, -0.24, 9.31, 2.04, 1.65, 7.41, repro,
2007-08-23,-0.33, -0.21, 15.34, 2.00, 1.60, 7.21, repro,
2007-08-24,0.79, 1.02, 7.99, 2.10, 1.69, 7.56, repro,
2007-08-25,-1.06, 0.51, 6.82, 2.05, 1.67, 7.41, repro,
2007-08-26,-0.14, -0.46, 9.67, 2.07, 1.72, 7.62, repro,
2007-08-27,-0.68, 0.90, 9.38, 2.08, 1.73, 7.68, repro,
2007-08-28,-1.37, -1.50, 5.09, 2.05, 1.68, 7.47, repro,
2007-08-29,0.25, 1.02, -0.13, 2.10, 1.72, 7.60, repro,
2007-08-30,-1.13, 0.91, 3.34, 2.05, 1.68, 7.48, repro,
2007-08-31,-0.43, 0.47, 7.65, 2.07, 1.69, 7.51, repro,
2007-09-01,-0.32, -1.31, 3.15, 2.06, 1.68, 7.49, repro,
2007-09-02,-1.38, -0.35, 7.22, 2.12, 1.73, 7.63, repro,
2007-09-03,-1.31, 0.38, 1.87, 2.05, 1.68, 7.48, repro,
2007-09-04,1.67, -1.32, 11.16, 2.03, 1.69, 7.43, repro,
2007-09-05,-0.18, -0.71, 8.67, 2.05, 1.67, 7.42, repro,
2007-09-06,0.42, -0.52, 9.00, 2.07, 1.69, 7.55, repro,
2007-09-07,-0.10, -0.43, 8.12, 2.05, 1.67, 7.45, repro,
2007-09-08,0.87, -0.38, 8.38, 2.16, 1.82, 8.00, repro,
2007-09-09,0.18, 0.20, 7.18, 2.11, 1.78, 7.80, repro,
2007-09-10,-1.17, -0.23, 5.93, 2.09, 1.73, 7.60, repro,
2007-09-11,-0.38, -0.30, 3.86, 2.08, 1.68, 7.49, repro,
2007-09-12,-0.12, -0.84, 7.91, 2.12, 1.73, 7.71, repro,
2007-09-13,-0.29, -0.50, 7.25, 2.18, 1.71, 7.75, repro,
2007-09-14,-0.44, -0.97, 7.40, 2.09, 1.72, 7.58, repro,
2007-09-15,0.37, -0.32, 7.17, 2.22, 1.70, 7.93, repro,
2007-09-16,0.17, -0.28, 6.25, 2.14, 1.67, 7.61, repro,
2007-09-17,-0.65, -0.83, 7.62, 2.13, 1.77, 7.82, repro,
2007-09-18,-0.09, -0.66, 5.45, 2.05, 1.71, 7.50, repro,
2007-09-19,-1.40, 0.46, 14.12, 1.96, 1.59, 7.07, repro,
2007-09-20,-1.44, -0.88, 12.25, 1.99, 1.63, 7.25, repro,
2007-09-21,2.14, -3.84, 9.78, 2.05, 1.66, 7.51, repro,
2007-09-22,-2.52, -2.79, 7.60, 2.04, 1.64, 7.42, repro,
2007-09-23,-1.46, 0.12, 9.85, 2.08, 1.70, 7.63, repro,
2007-09-24,-1.43, 0.54, 10.04, 2.11, 1.67, 7.61, repro,
2007-09-25,-1.50, -0.62, 3.17, 2.03, 1.64, 7.36, repro,
2007-09-26,0.11, -0.07, 12.85, 2.04, 1.65, 7.43, repro,
2007-09-27,-1.38, -0.57, 6.92, 2.04, 1.64, 7.45, repro,
2007-09-28,-1.37, -0.90, 8.25, 2.01, 1.68, 7.39, repro,
2007-09-29,-0.71, -0.21, 10.21, 2.04, 1.70, 7.52, repro,
2007-09-30,-1.05, -0.52, 11.81, 2.11, 1.75, 7.83, repro,
2007-10-01,-0.47, -0.35, 11.38, 2.03, 1.70, 7.52, repro,
2007-10-02,-0.65, -0.31, 9.16, 2.06, 1.76, 7.76, repro,
2007-10-03,0.20, 0.01, 6.75, 2.07, 1.68, 7.56, repro,
2007-10-04,0.74, -0.33, 9.11, 2.03, 1.66, 7.40, repro,
2007-10-05,-0.48, -2.39, 14.46, 2.09, 1.76, 7.91, repro,
2007-10-06,-1.85, -0.44, 13.21, 2.09, 1.72, 7.73, repro,
2007-10-07,-1.95, -0.41, 5.80, 2.08, 1.72, 7.68, repro,
2007-10-08,-1.31, -0.06, 7.14, 2.25, 1.81, 8.50, repro,
2007-10-09,-0.77, -0.09, 7.51, 2.23, 1.91, 8.34, repro,
2007-10-10,-1.38, 0.88, 5.53, 2.17, 1.73, 7.96, repro,
2007-10-11,-0.91, 0.21, 8.44, 2.04, 1.70, 7.54, repro,
2007-10-12,-1.56, -0.06, 11.51, 2.07, 1.76, 7.78, repro,
2007-10-13,-0.39, 0.52, 11.16, 1.97, 1.64, 7.30, repro,
2007-10-14,-1.04, 0.02, 8.49, 1.97, 1.64, 7.30, repro,
2007-10-15,-1.44, -0.52, 16.22, 1.99, 1.65, 7.35, repro,
2007-10-16,-1.55, -0.78, 15.22, 1.99, 1.64, 7.34, repro,
2007-10-17,-1.44, -0.09, 14.88, 1.98, 1.64, 7.32, repro,
2007-10-18,-1.06, 0.29, 12.24, 2.03, 1.71, 7.59, repro,
2007-10-19,-1.29, 0.48, 12.97, 1.97, 1.63, 7.26, repro,
2007-10-20,-0.85, 1.91, 20.10, 2.02, 1.68, 7.47, repro,
2007-10-21,-0.03, 0.91, 7.91, 1.99, 1.65, 7.39, repro,
2007-10-22,-1.19, 0.77, 2.41, 1.99, 1.63, 7.27, repro,
2007-10-23,-1.74, 0.50, -0.81, 2.05, 1.74, 7.70, repro,
2007-10-24,-2.01, 1.55, 3.60, 2.05, 1.74, 7.67, repro,
2007-10-25,-1.89, 0.75, 4.15, 2.02, 1.67, 7.44, repro,
2007-10-26,-1.20, 1.26, 5.02, 2.03, 1.69, 7.46, repro,
2007-10-27,-0.94, 0.38, 3.88, 2.02, 1.68, 7.50, repro,
2007-10-28,-0.79, 0.57, 1.03, 1.98, 1.63, 7.29, repro,
2007-10-29,-1.99, 0.74, 6.85, 1.98, 1.64, 7.33, repro,
2007-10-30,-1.06, 0.74, 5.65, 1.99, 1.63, 7.29, repro,
2007-10-31,-2.02, 0.59, 8.72, 2.00, 1.65, 7.40, repro,
2007-11-01,-1.63, 0.93, 3.85, 1.97, 1.61, 7.20, repro,
2007-11-02,-0.54, 0.97, 2.92, 1.95, 1.60, 7.12, repro,
2007-11-03,-1.98, 1.01, 1.27, 1.94, 1.60, 7.12, repro,
2007-11-04,-1.56, 0.74, 5.03, 1.95, 1.60, 7.09, repro,
2007-11-05,-1.52, 0.66, 1.61, 1.97, 1.61, 7.19, repro,
2007-11-06,-1.22, 0.64, -1.82, 2.03, 1.72, 7.50, repro,
2007-11-07,-0.98, 0.73, -2.10, 1.96, 1.60, 7.13, repro,
2007-11-08,-1.33, 0.62, 2.90, 1.98, 1.64, 7.28, repro,
2007-11-09,-1.95, -0.26, 0.53, 1.96, 1.64, 7.24, repro,
2007-11-10,-1.64, 0.70, 5.37, 1.95, 1.60, 7.13, repro,
2007-11-11,-1.77, 0.63, 5.27, 1.97, 1.62, 7.21, repro,
2007-11-12,-0.37, 0.53, 1.07, 1.96, 1.60, 7.15, repro,
2007-11-13,-0.42, 0.29, 5.95, 1.94, 1.61, 7.16, repro,
2007-11-14,-0.52, 0.71, 0.76, 1.96, 1.62, 7.17, repro,
2007-11-15,-1.01, 0.47, 3.07, 1.97, 1.63, 7.22, repro,
2007-11-16,-0.13, -0.04, 2.75, 1.99, 1.63, 7.28, repro,
2007-11-17,-1.15, -0.11, 1.66, 1.96, 1.61, 7.17, repro,
2007-11-18,-0.19, -0.35, 1.64, 1.95, 1.61, 7.16, repro,
2007-11-19,-1.45, 0.04, 2.67, 1.94, 1.60, 7.11, repro,
2007-11-20,0.15, 0.16, 0.88, 2.01, 1.71, 7.35, repro,
2007-11-21,-0.09, 0.49, -2.17, 2.01, 1.72, 7.43, repro,
2007-11-22,-0.27, 0.85, -1.24, 2.02, 1.69, 7.36, repro,
2007-11-23,-1.07, 0.73, 6.33, 2.06, 1.78, 7.60, repro,
2007-11-24,-0.64, -0.39, -0.16, 2.02, 1.71, 7.38, repro,
2007-11-25,-0.53, 0.35, 4.50, 2.07, 1.77, 7.50, repro,
2007-11-26,-0.01, 0.56, 0.37, 2.10, 1.82, 7.82, repro,
2007-11-27,-0.82, 1.65, 1.73, 2.09, 1.74, 7.64, repro,
2007-11-28,-0.25, 0.33, -5.47, 2.12, 1.75, 7.66, repro,
2007-11-29,-0.13, 0.54, -1.81, 2.15, 1.77, 7.75, repro,
2007-11-30,-0.25, 0.01, -0.43, 2.13, 1.76, 7.69, repro,
2007-12-01,-1.70, 0.10, 6.48, 2.13, 1.81, 7.88, repro,
2007-12-02,-0.96, 0.69, 3.69, 2.17, 1.83, 8.04, repro,
2007-12-03,-0.35, 1.16, -5.95, 2.18, 1.80, 8.13, repro,
2007-12-04,0.27, -0.10, -6.99, 2.18, 1.87, 8.11, repro,
2007-12-05,-0.93, 1.35, 7.48, 2.32, 2.07, 8.78, repro,
2007-12-06,0.42, 2.08, 9.77, 2.41, 2.17, 9.01, repro,
2007-12-07,0.44, 1.92, 11.42, 2.34, 2.11, 8.85, repro,
2007-12-08,0.26, -1.90, 2.00, 2.06, 1.77, 7.52, repro,
2007-12-09,0.88, 1.87, 0.61, 2.42, 2.26, 9.16, repro,
2007-12-10,0.41, 0.90, 1.88, 2.07, 1.78, 7.55, repro,
2007-12-11,1.93, 0.67, -0.54, 2.21, 1.83, 8.02, repro,
2007-12-12,0.27, -0.05, -5.40, 2.18, 1.78, 8.05, repro,
2007-12-13,-0.85, 0.28, -2.84, 2.11, 1.74, 7.66, repro,
2007-12-14,-0.43, 0.82, 1.90, 2.03, 1.64, 7.42, repro,
2007-12-15,-0.57, 1.78, 4.11, 2.06, 1.69, 7.49, repro,
2007-12-16,0.10, 0.26, 3.32, 2.06, 1.70, 7.53, repro,
2007-12-17,-1.28, 0.82, 10.11, 2.07, 1.70, 7.54, repro,
2007-12-18,-0.62, 1.33, 7.44, 2.04, 1.68, 7.50, repro,
2007-12-19,-0.36, 0.14, 6.00, 2.11, 1.70, 7.66, repro,
2007-12-20,1.18, 0.44, -1.06, 2.00, 1.63, 7.29, repro,
2007-12-21,-0.65, -0.57, 5.11, 2.08, 1.68, 7.53, repro,
2007-12-22,0.40, 0.52, 0.16, 2.13, 1.75, 7.89, repro,
2007-12-23,-0.67, 0.28, -2.63, 2.08, 1.73, 7.64, repro,
2007-12-24,0.34, 1.23, 4.82, 2.13, 1.78, 7.69, repro,
2007-12-25,-0.31, -0.37, 2.90, 2.03, 1.67, 7.39, repro,
2007-12-26,-0.67, 0.35, 2.23, 2.02, 1.65, 7.35, repro,
2007-12-27,0.64, 0.94, 5.26, 2.03, 1.65, 7.41, repro,
2007-12-28,-1.04, -0.40, 6.96, 2.09, 1.71, 7.63, repro,
2007-12-29,-1.80, 0.85, 6.67, 2.07, 1.69, 7.53, repro,
2007-12-30,0.05, 1.03, 2.31, 2.08, 1.70, 7.55, repro,
2007-12-31,-0.34, 1.63, -2.39, 2.00, 1.60, 7.25, repro,
2008-01-01,-0.13, 1.00, -5.65, 1.99, 1.60, 7.24, repro,
2008-01-02,-0.40, 1.05, -3.78, 2.01, 1.61, 7.27, repro,
2008-01-03,-0.87, 1.17, 1.38, 2.04, 1.64, 7.41, repro,
2008-01-04,-0.92, 1.66, 7.63, 1.99, 1.58, 7.16, repro,
2008-01-05,-0.57, -0.29, 12.34, 1.99, 1.59, 7.18, repro,
2008-01-06,-2.09, 0.61, 8.97, 1.98, 1.59, 7.23, repro,
2008-01-07,-0.72, 0.50, 8.44, 1.98, 1.60, 7.25, repro,
2008-01-08,-1.49, 1.09, 5.63, 2.04, 1.60, 7.42, repro,
2008-01-09,-1.63, -0.15, 1.94, 2.04, 1.61, 7.41, repro,
2008-01-10,-1.19, 1.28, -1.03, 1.98, 1.59, 7.19, repro,
2008-01-11,-0.41, 0.75, -4.25, 1.98, 1.60, 7.25, repro,
2008-01-12,-0.73, 0.94, 3.73, 1.97, 1.60, 7.26, repro,
2008-01-13,-0.48, 0.10, -3.66, 1.97, 1.59, 7.16, repro,
2008-01-14,-0.60, 0.76, -2.44, 1.97, 1.60, 7.22, repro,
2008-01-15,-0.62, 0.06, 0.55, 1.97, 1.60, 7.22, repro,
2008-01-16,-1.22, 0.33, 0.60, 2.03, 1.62, 7.37, repro,
2008-01-17,-0.79, -0.16, -2.42, 2.01, 1.62, 7.38, repro,
2008-01-18,-0.44, 0.41, 1.20, 1.96, 1.63, 7.24, repro,
2008-01-19,-0.96, 0.99, -6.70, 1.96, 1.60, 7.16, repro,